DW5212 Weather Reports


time (UTC)temp
C
wind
direction
speed
KPH
gust
KPH
rain 1hr
cm
rain 24hr
cm
rain mn
cm
humidity
%
barometer
mb
20260509031009 19 213 1.6 8.0 0.00 0.33 0.33 93 1010.9
20260509030508 19 261 1.6 9.7 0.00 0.33 0.33 93 1010.9
20260509030011 19 251 3.2 11.3 0.00 0.33 0.33 93 1010.7
20260509025008 19 167 1.6 6.4 0.00 0.33 0.33 93 1010.4
20260509023508 19 163 0.0 8.0 0.00 0.33 0.33 93 1010.1
20260509023009 19 184 0.0 0.0 0.00 0.33 0.33 93 1010.1
20260509022508 19 174 0.0 0.0 0.00 0.33 0.33 93 1010.2
20260509022010 19 88 0.0 0.0 0.00 0.33 0.33 92 1010.4
20260509021508 19 88 0.0 0.0 0.00 0.33 0.33 92 1010.6
20260509021009 19 88 0.0 0.0 0.00 0.33 0.33 92 1010.7
20260509020011 19 38 0.0 0.0 0.00 0.33 0.33 92 1010.7
20260509015508 19 38 0.0 0.0 0.00 0.33 0.33 92 1010.8
20260509015009 19 38 0.0 0.0 0.00 0.33 0.33 92 1010.5
20260509014508 19 38 0.0 0.0 0.00 0.33 0.33 92 1010.4
20260509014010 19 38 0.0 0.0 0.00 0.33 0.33 92 1010.4
20260509013508 19 38 0.0 0.0 0.00 0.33 0.33 92 1010.7
20260509013009 19 38 0.0 0.0 0.00 0.33 0.33 92 1011.0
20260509012508 19 38 0.0 0.0 0.00 0.33 0.33 92 1011.0
20260509012011 19 38 0.0 0.0 0.00 0.33 0.33 92 1011.0
20260509011509 19 38 0.0 0.0 0.00 0.33 0.33 92 1011.1
20260509011009 19 38 0.0 0.0 0.00 0.33 0.33 91 1010.8
20260509010509 19 104 0.0 0.0 0.00 0.33 0.33 91 1010.6
20260509010011 19 103 0.0 0.0 0.00 0.33 0.33 91 1010.9
20260509005507 19 103 0.0 0.0 0.00 0.33 0.33 91 1011.2
20260509005008 19 103 0.0 0.0 0.00 0.33 0.33 91 1011.3
20260509004508 19 103 0.0 0.0 0.00 0.33 0.33 91 1011.3
20260509004009 19 103 0.0 0.0 0.00 0.33 0.33 91 1011.1
20260509003508 19 103 0.0 0.0 0.00 0.33 0.33 91 1010.7
20260509003009 19 103 0.0 0.0 0.00 0.33 0.33 91 1010.8
20260509002508 19 103 0.0 0.0 0.00 0.33 0.33 91 1010.7
20260509002009 19 103 0.0 0.0 0.00 0.33 0.33 91 1010.5
20260509001510 19 118 0.0 0.0 0.00 0.33 0.33 90 1010.7
20260509001010 19 118 0.0 0.0 0.00 0.33 0.33 90 1011.0
20260508235508 20 118 0.0 0.0 0.00 0.33 0.33 90 1011.3
20260508234508 20 118 0.0 0.0 0.00 0.33 0.33 90 1011.1
20260508234009 20 117 0.0 0.0 0.00 0.33 0.33 90 1011.2
20260508233009 20 113 0.0 0.0 0.00 0.33 0.33 90 1011.1
20260508232508 20 120 0.0 0.0 0.00 0.33 0.33 90 1011.3
20260508232009 20 121 0.0 0.0 0.00 0.33 0.33 90 1011.1
20260508231009 19 84 0.0 0.0 0.00 0.33 0.33 90 1010.9
20260508230012 19 164 0.0 0.0 0.00 0.33 0.33 89 1011.1
20260508225508 20 163 0.0 0.0 0.00 0.33 0.33 89 1011.3
20260508225009 20 164 0.0 0.0 0.00 0.33 0.33 89 1011.3
20260508224508 20 163 0.0 0.0 0.00 0.33 0.33 89 1011.3
20260508224008 19 164 0.0 3.2 0.00 0.33 0.33 89 1011.3
20260508223507 20 163 0.0 3.2 0.00 0.33 0.33 88 1011.3
20260508223008 20 247 1.6 4.8 0.00 0.33 0.33 88 1011.2
20260508222507 20 261 0.0 4.8 0.00 0.33 0.33 88 1011.2
20260508222008 19 142 0.0 0.0 0.00 0.33 0.33 88 1011.1
20260508221508 19 142 0.0 0.0 0.00 0.33 0.33 88 1010.9
20260508221010 20 167 0.0 3.2 0.00 0.33 0.33 88 1011.3
20260508220507 20 168 0.0 3.2 0.00 0.33 0.33 88 1011.0
20260508220012 20 163 0.0 3.2 0.00 0.33 0.33 88 1011.0
20260508214510 20 148 1.6 4.8 0.00 0.33 0.33 87 1011.3
20260508214010 20 243 1.6 9.7 0.00 0.33 0.33 87 1011.4
20260508213508 20 164 1.6 9.7 0.00 0.33 0.33 86 1011.5
20260508211509 20 203 1.6 6.4 0.00 0.33 0.33 86 1011.8
20260508211009 20 240 1.6 6.4 0.00 0.33 0.33 86 1011.8
20260508210507 20 94 1.6 6.4 0.00 0.33 0.33 86 1011.8
20260508210011 20 183 1.6 6.4 0.00 0.33 0.33 87 1011.6
20260508205507 20 107 1.6 3.2 0.00 0.33 0.33 87 1011.8
20260508205008 20 108 1.6 4.8 0.00 0.33 0.33 87 1011.7
20260508204509 19 153 0.0 4.8 0.00 0.33 0.33 88 1011.7
20260508204009 19 219 0.0 0.0 0.00 0.33 0.33 87 1011.7
20260508203508 19 73 0.0 0.0 0.00 0.33 0.33 87 1011.7
20260508203016 19 121 0.0 3.2 0.00 0.33 0.33 87 1012.0
20260508202508 19 122 1.6 9.7 0.00 0.33 0.33 87 1011.9
20260508202008 19 133 1.6 4.8 0.00 0.33 0.33 87 1012.0
20260508201509 19 200 1.6 4.8 0.00 0.33 0.33 87 1012.2
20260508201008 19 191 1.6 6.4 0.00 0.33 0.33 86 1012.0
20260508200010 19 148 1.6 6.4 0.00 0.33 0.33 86 1012.2
20260508195507 19 107 1.6 6.4 0.00 0.33 0.33 86 1012.2
20260508194507 20 84 1.6 6.4 0.00 0.33 0.33 86 1012.3
20260508194009 20 163 1.6 4.8 0.00 0.33 0.33 85 1012.4
20260508193506 20 97 3.2 12.9 0.00 0.33 0.33 85 1012.4
20260508193010 21 114 3.2 12.9 0.00 0.33 0.33 85 1012.4
20260508192507 21 92 3.2 6.4 0.00 0.33 0.33 86 1012.3
20260508192009 21 99 1.6 4.8 0.00 0.33 0.33 87 1012.2
20260508191508 21 102 3.2 9.7 0.00 0.33 0.33 86 1012.4
20260508191008 21 157 3.2 14.5 0.00 0.33 0.33 86 1012.5
20260508190509 20 156 1.6 14.5 0.00 0.33 0.33 87 1012.6
20260508190011 20 209 1.6 11.3 0.00 0.33 0.33 88 1012.6
20260508185508 20 66 3.2 11.3 0.00 0.33 0.33 88 1012.5
20260508185010 20 80 1.6 6.4 0.00 0.33 0.33 89 1012.7
20260508184509 20 109 1.6 4.8 0.00 0.33 0.33 90 1013.0
20260508184009 19 92 1.6 6.4 0.00 0.33 0.33 90 1012.8
20260508183506 19 94 1.6 6.4 0.00 0.33 0.33 90 1012.9
20260508182506 19 148 0.0 4.8 0.00 0.33 0.33 90 1012.9
20260508182009 19 29 0.0 0.0 0.00 0.33 0.33 91 1013.2
20260508181507 18 36 0.0 1.6 0.00 0.33 0.33 91 1012.8
20260508181008 18 32 1.6 3.2 0.00 0.33 0.33 90 1012.6
20260508180508 18 30 1.6 6.4 0.00 0.33 0.33 89 1012.9
20260508180009 19 133 1.6 6.4 0.00 0.33 0.33 90 1013.6
20260508175507 19 97 1.6 6.4 0.00 0.33 0.33 90 1013.5
20260508175008 19 91 1.6 6.4 0.00 0.33 0.33 90 1013.5
20260508174507 19 135 1.6 8.0 0.00 0.33 0.33 91 1013.7
20260508174010 18 136 1.6 4.8 0.00 0.33 0.33 92 1013.7
20260508173010 18 110 1.6 4.8 0.00 0.33 0.33 93 1013.2
20260508172009 17 20 1.6 6.4 0.00 0.33 0.33 94 1013.3
20260508171507 17 84 1.6 6.4 0.03 0.33 0.33 93 1013.1
20260508170506 16 19 1.6 6.4 0.08 0.33 0.33 94 1013.8
20260508170007 16 34 1.6 3.2 0.08 0.33 0.33 94 1014.0
20260508165505 16 19 1.6 4.8 0.10 0.33 0.33 94 1014.1
20260508165007 16 30 3.2 6.4 0.15 0.33 0.33 94 1013.6
20260508164507 16 32 1.6 8.0 0.18 0.33 0.33 94 1013.5
20260508163507 15 5 0.0 0.0 0.23 0.33 0.33 94 1013.7
20260508163008 15 5 0.0 0.0 0.33 0.33 0.33 94 1013.8
20260508162505 15 5 1.6 4.8 0.33 0.33 0.33 93 1013.8
20260508162008 15 5 1.6 6.4 0.33 0.33 0.33 93 1013.6
20260508161507 15 19 1.6 6.4 0.30 0.30 0.30 93 1014.3
20260508160506 15 29 0.0 0.0 0.25 0.25 0.25 92 1015.2
20260508155008 15 52 1.6 4.8 0.18 0.18 0.18 91 1015.1
20260508154507 15 22 1.6 4.8 0.15 0.15 0.15 91 1015.4
20260508154007 15 177 1.6 4.8 0.13 0.13 0.13 90 1015.6
20260508153506 15 205 1.6 4.8 0.10 0.10 0.10 90 1016.3
20260508153008 15 221 1.6 4.8 0.00 0.00 0.00 89 1016.1
20260508152506 16 219 1.6 4.8 0.00 0.00 0.00 89 1016.4
20260508152007 16 157 1.6 4.8 0.00 0.00 0.00 88 1015.6
20260508151506 16 157 1.6 6.4 0.00 0.00 0.00 88 1015.7
20260508151007 16 67 0.0 6.4 0.00 0.00 0.00 87 1015.6
20260508150505 16 43 0.0 6.4 0.00 0.00 0.00 87 1015.5
20260508150009 16 156 0.0 0.0 0.00 0.00 0.00 87 1015.4
20260508145507 16 103 0.0 0.0 0.00 0.00 0.00 87 1015.6
20260508145006 16 27 0.0 0.0 0.00 0.00 0.00 87 1015.9
20260508144506 16 27 0.0 0.0 0.00 0.00 0.00 88 1015.8
20260508144008 16 28 0.0 1.6 0.00 0.00 0.00 87 1015.9
20260508143506 16 54 0.0 1.6 0.00 0.00 0.00 88 1016.0
20260508142505 16 55 0.0 3.2 0.00 0.00 0.00 87 1015.7
20260508142007 16 55 0.0 3.2 0.00 0.00 0.00 87 1015.8
20260508141506 16 146 0.0 0.0 0.00 0.00 0.00 87 1015.7
20260508141006 16 146 0.0 0.0 0.00 0.00 0.00 88 1016.0
20260508140507 16 146 0.0 1.6 0.00 0.00 0.00 88 1016.1
20260508140010 16 146 1.6 3.2 0.00 0.00 0.00 87 1015.6
20260508135508 16 146 0.0 3.2 0.00 0.00 0.00 87 1015.3
20260508135008 16 146 0.0 1.6 0.00 0.00 0.00 87 1015.5
20260508134508 16 146 0.0 3.2 0.00 0.00 0.00 87 1015.2
20260508134009 16 146 0.0 3.2 0.00 0.00 0.00 88 1015.3
20260508133507 16 117 0.0 0.0 0.00 0.00 0.00 89 1015.2
20260508133010 16 138 0.0 0.0 0.00 0.00 0.00 89 1014.9
20260508132508 16 138 0.0 0.0 0.00 0.00 0.00 89 1015.2
20260508132009 16 138 0.0 0.0 0.00 0.00 0.00 90 1015.2
20260508131510 16 146 0.0 0.0 0.00 0.00 0.00 90 1015.0
20260508131010 16 207 0.0 0.0 0.00 0.00 0.00 90 1015.4
20260508130022 16 176 0.0 0.0 0.00 0.00 0.00 90 1015.5
20260508125507 16 32 0.0 0.0 0.00 0.00 0.00 90 1014.9
20260508125007 15 24 0.0 3.2 0.00 0.00 0.00 91 1014.8
20260508124507 15 161 1.6 3.2 0.00 0.00 0.00 91 1014.7
20260508124007 15 180 1.6 4.8 0.00 0.00 0.00 91 1014.6
20260508123008 15 76 0.0 0.0 0.00 0.00 0.00 91 1014.8
20260508122507 15 48 0.0 0.0 0.00 0.00 0.00 91 1013.8
20260508122009 15 48 0.0 0.0 0.00 0.00 0.00 92 1014.0
20260508121508 15 48 0.0 0.0 0.00 0.00 0.00 92 1014.0
20260508121007 15 52 0.0 0.0 0.00 0.00 0.00 92 1014.0
20260508120507 15 33 0.0 0.0 0.00 0.00 0.00 92 1014.2
20260508115505 15 33 0.0 0.0 0.00 0.00 0.00 93 1014.1
20260508115007 15 33 0.0 0.0 0.00 0.00 0.00 93 1014.0
20260508114008 15 52 0.0 0.0 0.00 0.00 0.00 94 1014.3
20260508113506 15 32 0.0 0.0 0.00 0.00 0.00 94 1014.6
20260508113007 15 32 0.0 0.0 0.00 0.00 0.00 94 1015.1
20260508112506 15 32 0.0 0.0 0.00 0.00 0.00 94 1015.2
20260508111507 15 44 0.0 3.2 0.00 0.00 0.00 94 1014.9
20260508110505 15 64 0.0 0.0 0.00 0.00 0.00 94 1014.8
20260508110009 15 64 0.0 0.0 0.00 0.00 0.00 94 1014.6
20260508105506 15 64 0.0 0.0 0.00 0.00 0.00 94 1014.8
20260508105006 15 65 0.0 0.0 0.00 0.00 0.00 94 1014.8
20260508104506 15 64 0.0 0.0 0.00 0.00 0.00 93 1014.8
20260508104006 15 65 0.0 0.0 0.00 0.00 0.00 93 1014.7
20260508103506 15 65 0.0 0.0 0.00 0.00 0.00 93 1014.6
20260508103008 15 65 0.0 0.0 0.00 0.00 0.00 93 1014.6
20260508102506 15 64 0.0 0.0 0.00 0.00 0.00 93 1014.6
20260508102006 15 64 0.0 0.0 0.00 0.00 0.00 93 1014.7
20260508100505 15 65 0.0 0.0 0.00 0.00 0.00 93 1014.8
20260508100008 15 64 0.0 0.0 0.00 0.00 0.00 93 1014.8
20260508095506 15 65 0.0 0.0 0.00 0.00 0.00 93 1014.9
20260508095008 15 64 0.0 0.0 0.00 0.00 0.00 93 1015.0
20260508094506 15 64 0.0 0.0 0.00 0.00 0.00 93 1014.8
20260508094007 15 64 0.0 0.0 0.00 0.00 0.00 93 1014.6
20260508093506 15 65 0.0 0.0 0.00 0.00 0.00 93 1014.3
20260508093007 15 65 0.0 0.0 0.00 0.00 0.00 93 1014.4
20260508092506 15 64 0.0 0.0 0.00 0.00 0.00 93 1014.6
20260508092007 15 65 0.0 0.0 0.00 0.00 0.00 93 1014.6
20260508090507 15 64 0.0 0.0 0.00 0.00 0.00 92 1014.9
20260508090010 15 65 0.0 0.0 0.00 0.00 0.00 93 1014.7
20260508085507 15 65 0.0 0.0 0.00 0.00 0.00 93 1014.5
20260508085007 15 65 0.0 0.0 0.00 0.00 0.00 93 1014.7
20260508084507 15 65 0.0 0.0 0.00 0.00 0.00 93 1014.8
20260508084008 15 64 0.0 0.0 0.00 0.00 0.00 93 1014.7
20260508083508 15 65 0.0 0.0 0.00 0.00 0.00 93 1014.8
20260508082507 15 65 0.0 0.0 0.00 0.00 0.00 93 1014.4
20260508082007 15 64 0.0 0.0 0.00 0.00 0.00 92 1014.6
20260508081506 15 64 0.0 0.0 0.00 0.00 0.00 92 1014.7
20260508081008 15 64 0.0 0.0 0.00 0.00 0.00 92 1014.5
20260508080009 15 65 0.0 0.0 0.00 0.00 0.00 92 1014.7
20260508074508 15 65 0.0 0.0 0.00 0.00 0.00 92 1014.8
20260508074007 15 64 0.0 0.0 0.00 0.00 0.00 92 1014.7
20260508073506 15 64 0.0 0.0 0.00 0.00 0.00 92 1014.6
20260508073010 15 64 0.0 0.0 0.00 0.00 0.00 92 1014.3
20260508072507 15 65 0.0 0.0 0.00 0.00 0.00 92 1014.6
20260508072007 15 65 0.0 0.0 0.00 0.00 0.00 92 1014.8
20260508071507 15 65 0.0 0.0 0.00 0.00 0.00 92 1014.6
20260508071008 15 65 0.0 0.0 0.00 0.00 0.00 92 1014.8
20260508070008 16 64 0.0 0.0 0.00 0.00 0.00 92 1014.9
20260508065507 16 65 0.0 0.0 0.00 0.00 0.00 92 1014.8
20260508065007 16 65 0.0 0.0 0.00 0.00 0.00 92 1014.9
20260508064008 16 65 0.0 0.0 0.00 0.00 0.00 91 1014.5
20260508063506 16 64 0.0 0.0 0.00 0.00 0.00 91 1014.9
20260508063009 16 64 0.0 0.0 0.00 0.00 0.00 91 1015.1
20260508062506 16 64 0.0 0.0 0.00 0.00 0.00 91 1015.4
20260508061507 16 65 0.0 0.0 0.00 0.00 0.00 91 1015.5
20260508061006 16 64 0.0 0.0 0.00 0.00 0.00 91 1015.3
20260508060011 16 64 0.0 0.0 0.00 0.00 0.00 91 1015.1
20260508055507 16 65 0.0 0.0 0.00 0.00 0.00 91 1015.3
20260508055009 16 64 0.0 0.0 0.00 0.00 0.00 91 1015.3
20260508054508 16 65 0.0 0.0 0.00 0.00 0.00 91 1015.7
20260508054009 16 64 0.0 0.0 0.00 0.00 0.00 91 1015.6
20260508053010 16 64 0.0 0.0 0.00 0.00 0.00 91 1014.9
20260508052507 16 65 0.0 0.0 0.00 0.00 0.00 91 1015.1
20260508052008 16 65 0.0 0.0 0.00 0.00 0.00 91 1015.2
20260508051508 16 65 0.0 0.0 0.00 0.00 0.00 91 1015.3
20260508051008 16 51 0.0 0.0 0.00 0.00 0.00 91 1015.3
20260508050509 16 51 0.0 0.0 0.00 0.00 0.00 91 1015.1
20260508045509 16 51 0.0 0.0 0.00 0.00 0.00 90 1015.0
20260508044508 16 47 0.0 0.0 0.00 0.00 0.00 90 1015.9
20260508044010 16 47 0.0 0.0 0.00 0.00 0.00 90 1015.7
20260508043508 16 47 0.0 0.0 0.00 0.00 0.00 90 1015.4
20260508042507 16 47 0.0 0.0 0.00 0.00 0.00 90 1016.0
20260508042010 16 47 0.0 0.0 0.00 0.00 0.00 89 1016.0
20260508041510 16 47 0.0 0.0 0.00 0.00 0.00 90 1016.1
20260508041009 16 47 0.0 0.0 0.00 0.00 0.00 90 1016.0
20260508040015 17 47 0.0 0.0 0.00 0.00 0.00 89 1016.4
20260508034510 17 65 0.0 0.0 0.00 0.00 0.00 89 1015.9
20260508034010 17 65 0.0 0.0 0.00 0.00 0.00 89 1015.8
20260508033508 17 65 0.0 0.0 0.00 0.00 0.00 89 1015.2
20260508032508 17 65 0.0 0.0 0.00 0.00 0.00 89 1015.4
20260508032009 17 65 0.0 0.0 0.00 0.00 0.00 89 1015.9
20260508031509 17 65 0.0 0.0 0.00 0.00 0.00 89 1015.9